Weather reports worldwide

Advertisment
Fyvie castle, United Kingdom (99010): temperature & dewpoint: 18.06.2017 04:00:00 - 24.06.2017 04:00:00 (BST)Fyvie castle, United Kingdom (99010): temperature 5cm: 18.06.2017 04:00:00 - 24.06.2017 04:00:00 (BST)Fyvie castle, United Kingdom (99010): wind speed: 18.06.2017 04:00:00 - 24.06.2017 04:00:00 (BST)Fyvie castle, United Kingdom (99010): wind direction: 18.06.2017 04:00:00 - 24.06.2017 04:00:00 (BST)Fyvie castle, United Kingdom (99010): visibility: 18.06.2017 04:00:00 - 24.06.2017 04:00:00 (BST)Fyvie castle, United Kingdom (99010): precipitation: 18.06.2017 04:00:00 - 24.06.2017 04:00:00 (BST)
Date & Time tt [°C] td [°C] tt 5cm [°C] ff [km/h] ff [kn] dd vv [km] rr [mm]
24.06.2017 04:00:00 - - - - - - - -
24.06.2017 03:00:00 11,1 5,3 - - - - - 0,0
24.06.2017 02:00:00 12,0 5,5 - - - - - 0,0
24.06.2017 01:00:00 12,3 4,8 - - - - - 0,0
24.06.2017 00:00:00 11,4 4,6 - - - - - 0,0
23.06.2017 23:00:00 11,9 5,4 - - - - - 0,0
23.06.2017 22:00:00 13,1 4,9 - - - - 10 0,0
23.06.2017 21:00:00 14,6 6,0 - - - - - 0,0
23.06.2017 20:00:00 15,9 6,7 - - - - - 0,0
23.06.2017 19:00:00 16,8 5,7 - - - - - 0,0
23.06.2017 18:00:00 18,0 7,4 - - - - - 0,0
23.06.2017 17:00:00 18,8 7,1 - - - - - 0,0
23.06.2017 16:00:00 19,3 6,8 - - - - - 0,0
23.06.2017 15:00:00 18,7 8,0 - - - - - 0,0
23.06.2017 14:00:00 18,5 8,7 - - - - - 0,0
23.06.2017 13:00:00 18,5 9,6 - - - - - 0,0
23.06.2017 12:00:00 18,4 9,5 - - - - - 0,0
23.06.2017 11:00:00 18,8 11,8 - - - - - 0,0
23.06.2017 10:00:00 18,0 12,9 - 43 23 N 0,1 0,0
23.06.2017 09:00:00 16,9 12,7 - - - - - 0,0
23.06.2017 08:00:00 14,8 12,1 - - - - - 0,0
23.06.2017 07:00:00 12,5 11,7 - - - - - 0,0
23.06.2017 06:00:00 11,2 10,6 - - - - - 0,0
23.06.2017 05:00:00 11,7 10,9 - - - - - 0,0
23.06.2017 04:00:00 11,6 11,1 - - - - - 0,4
23.06.2017 03:00:00 11,6 11,0 - - - - - 0,8
23.06.2017 02:00:00 11,4 11,1 - - - - - 1,0
23.06.2017 01:00:00 11,4 10,9 - - - - - 0,0
23.06.2017 00:00:00 11,5 10,9 - - - - - 0,4
22.06.2017 23:00:00 11,5 10,9 - - - - - 0,6
22.06.2017 22:00:00 11,3 10,7 - - - - - 0,0
22.06.2017 21:00:00 11,5 10,7 - - - - - 0,0
22.06.2017 20:00:00 11,9 11,2 - - - - - 1,2
22.06.2017 19:00:00 12,4 11,4 - - - - - 0,4
22.06.2017 18:00:00 13,3 11,2 - - - - - 0,0
22.06.2017 17:00:00 14,9 11,2 - - - - - 0,0
22.06.2017 16:00:00 15,3 9,7 - - - - - 0,0
22.06.2017 15:00:00 14,9 10,3 - - - - - 0,0
22.06.2017 14:00:00 15,6 11,5 - - - - - 0,0
22.06.2017 13:00:00 16,0 11,7 - - - - - 0,0
22.06.2017 12:00:00 13,6 11,4 - - - - - 0,0
22.06.2017 11:00:00 12,9 11,0 - - - - - 0,2
22.06.2017 10:00:00 12,5 11,8 - 76 41 N 2,8 0,0
22.06.2017 09:00:00 12,6 11,7 - - - - - 0,0
22.06.2017 08:00:00 14,1 12,7 - - - - - 0,0
22.06.2017 07:00:00 14,1 12,7 - - - - - 0,0
22.06.2017 06:00:00 13,9 12,9 - - - - - 0,0
22.06.2017 05:00:00 14,2 13,3 - - - - - 0,0
22.06.2017 04:00:00 14,7 13,8 - - - - - 0,0
22.06.2017 03:00:00 15,4 15,0 - - - - - 0,0
22.06.2017 02:00:00 15,3 15,0 - - - - - 0,0
22.06.2017 01:00:00 15,4 15,1 - - - - - 0,0
22.06.2017 00:00:00 15,5 15,1 - - - - - 0,0
21.06.2017 23:00:00 15,7 15,1 - - - - - 0,0
21.06.2017 22:00:00 15,9 15,3 - - - - - 0,2
21.06.2017 21:00:00 15,9 15,2 - - - - - 1,2
21.06.2017 20:00:00 16,3 15,6 - - - - - 1,4
21.06.2017 19:00:00 16,4 15,5 - - - - - 1,0
21.06.2017 18:00:00 16,3 14,8 - - - - - 0,6
21.06.2017 17:00:00 17,2 14,8 - - - - - 0,0
21.06.2017 16:00:00 16,9 13,4 - - - - - 0,0
21.06.2017 15:00:00 15,7 12,5 - - - - - 0,0
21.06.2017 14:00:00 14,8 11,7 - - - - - 0,0
21.06.2017 13:00:00 15,8 11,7 - - - - - 0,0
21.06.2017 12:00:00 15,8 11,9 - - - - - 0,0
21.06.2017 11:00:00 14,8 10,9 - - - - - 0,0
21.06.2017 10:00:00 15,1 10,9 15,1 65 35 N 55 0,0
21.06.2017 09:00:00 14,1 11,3 - - - - - 0,0
21.06.2017 08:00:00 13,5 11,5 - - - - - 0,0
21.06.2017 07:00:00 13,1 11,1 - - - - - 0,0
21.06.2017 06:00:00 13,2 11,5 - - - - - 0,0
21.06.2017 05:00:00 12,8 11,2 - - - - - 0,0
21.06.2017 04:00:00 12,4 11,0 - - - - - 0,0
21.06.2017 03:00:00 12,0 10,7 - - - - - 0,0
21.06.2017 02:00:00 11,4 10,0 - - - - - 0,0
21.06.2017 01:00:00 11,0 9,5 - - - - - 0,0
21.06.2017 00:00:00 10,4 9,0 - - - - - 0,0
20.06.2017 23:00:00 10,5 8,5 - - - - - 0,0
20.06.2017 22:00:00 11,7 9,0 - - - - - 0,0
20.06.2017 21:00:00 12,5 9,0 - - - - - 0,0
20.06.2017 20:00:00 12,9 7,9 - - - - - 0,0
20.06.2017 19:00:00 13,2 9,1 - - - - - 0,0
20.06.2017 18:00:00 13,6 8,5 - - - - - 0,0
20.06.2017 17:00:00 14,1 8,2 - - - - - 0,0
20.06.2017 16:00:00 14,6 7,8 - - - - - 0,0
20.06.2017 15:00:00 16,1 8,6 - - - - - 0,0
20.06.2017 14:00:00 16,1 7,5 - - - - - 0,0
20.06.2017 13:00:00 16,1 7,6 - - - - - 0,0
20.06.2017 12:00:00 15,7 7,0 - - - - - 0,0
20.06.2017 11:00:00 14,0 5,6 - - - - - 0,0
20.06.2017 10:00:00 14,6 6,7 14,7 - - N 3,1 0,0
20.06.2017 09:00:00 13,0 6,5 - - - - - 0,0
20.06.2017 08:00:00 11,6 6,7 - - - - - 0,0
20.06.2017 07:00:00 10,3 7,0 - - - - - 0,0
20.06.2017 06:00:00 7,0 6,4 - - - - - 0,0
20.06.2017 05:00:00 5,5 5,1 - - - - - 0,0
20.06.2017 04:00:00 6,0 5,6 - - - - - 0,0
20.06.2017 03:00:00 6,9 6,4 - - - - - 0,0
20.06.2017 02:00:00 7,4 6,7 - - - - - 0,0
20.06.2017 01:00:00 8,2 6,8 - - - - - 0,0
20.06.2017 00:00:00 9,8 8,1 - - - - - 0,0
19.06.2017 23:00:00 11,0 7,5 - - - - - 0,0
19.06.2017 22:00:00 12,5 8,2 - - - - - 0,0
19.06.2017 21:00:00 13,3 7,8 - - - - - 0,0
19.06.2017 20:00:00 15,1 8,6 - - - - - 0,0
19.06.2017 19:00:00 15,5 9,4 - - - - - 0,0
19.06.2017 18:00:00 17,0 9,9 - - - - - 0,0
19.06.2017 17:00:00 17,0 10,2 - - - - - 0,0
19.06.2017 16:00:00 15,9 10,5 - - - - - 0,0
19.06.2017 15:00:00 15,3 11,3 - - - - - 0,0
19.06.2017 14:00:00 14,3 11,0 - - - - - 0,0
19.06.2017 13:00:00 14,8 11,6 - - - - - 0,0
19.06.2017 12:00:00 13,1 11,1 - - - - - 0,0
19.06.2017 11:00:00 13,5 11,6 - - - - - 0,0
19.06.2017 10:00:00 13,3 11,6 15,5 76 41 N 2,4 0,0
19.06.2017 09:00:00 15,3 12,9 - - - - - 0,0
19.06.2017 08:00:00 14,0 12,4 - - - - - 0,0
19.06.2017 07:00:00 13,4 12,2 - - - - - 0,0
19.06.2017 06:00:00 13,0 12,5 - - - - - 0,0
19.06.2017 05:00:00 12,7 12,2 - - - - - 0,0
19.06.2017 04:00:00 12,6 11,9 - - - - - 0,2
19.06.2017 03:00:00 13,6 13,1 - - - - - 0,2
19.06.2017 02:00:00 13,7 12,9 - - - - - 0,0
19.06.2017 01:00:00 13,8 13,0 - - - - - 0,0
19.06.2017 00:00:00 13,8 12,9 - - - - - 0,0
18.06.2017 23:00:00 13,9 13,0 - - - - - 0,0
18.06.2017 22:00:00 14,0 12,9 - - - - - 0,0
18.06.2017 21:00:00 14,2 12,5 - - - - - 0,4
18.06.2017 20:00:00 14,3 12,2 - - - - - 0,0
18.06.2017 19:00:00 14,3 11,7 - - - - - 0,0
18.06.2017 18:00:00 16,1 10,8 - - - - - 0,0
18.06.2017 17:00:00 18,4 11,5 - - - - - 0,0
18.06.2017 16:00:00 20,6 13,4 - - - - - 0,0
18.06.2017 15:00:00 19,3 13,7 - - - - - 0,0
18.06.2017 14:00:00 17,8 13,6 - - - - - 0,0
18.06.2017 13:00:00 19,7 14,7 - - - - - 0,0
18.06.2017 12:00:00 21,5 13,8 - - - - - 0,0
18.06.2017 11:00:00 21,9 14,0 - - - - - 0,0
18.06.2017 10:00:00 21,3 13,5 21,7 130 70 N 1,5 0,0
18.06.2017 09:00:00 18,9 14,2 - - - - - 0,0
18.06.2017 08:00:00 17,5 15,5 - - - - - 0,0
18.06.2017 07:00:00 15,2 14,4 - - - - - 0,0
18.06.2017 06:00:00 13,4 13,1 - - - - - 0,0
18.06.2017 05:00:00 13,1 12,6 - - - - - 0,0
18.06.2017 04:00:00 13,7 13,1 - - - - - 0,0

tt = temperature
td = dewpoint
tt 5cm = temperature 5cm
ff = wind speed
dd = wind direction
vv = visibility
rr = precipitation

Next stations